This demonstration page uses our WeatherBlox Daily Observations layout. Learn more.

Left ArrowRight Arrow

44.89941, -97.11507

Hourly Observations for June 24, 2021

Temp ( °F °C ) Dew Point ( °F °C ) Humidity (%) Winds ( mph kmh ) Pressure ( in mb ) Visibility ( mi km ) Precip ( " mm )
12:53 am 00:53 Clear 77 25 64 17.8 64 64 SSW 7 11 29.62 1003 10 16 0.00 0.00
1:53 am 01:53 Mostly Clear 76 24.4 65 18.3 69 69 NNW 7 11 29.66 1004 10 16 0.00 0.00
2:53 am 02:53 Clear 73 22.8 56 13.3 55 55 NNE 10 17 29.70 1006 10 16 0.00 0.00
3:53 am 03:53 Clear 70 21.1 53 11.7 55 55 NNE 8 13 29.72 1007 10 16 0.00 0.00
4:53 am 04:53 Clear 67 19.4 54 12.2 63 63 N 9 15 29.75 1007 10 16 0.00 0.00
5:53 am 05:53 Sunny 65 18.3 54 12.2 68 68 N 9 15 29.76 1008 10 16 0.00 0.00
6:53 am 06:53 Sunny 66 18.9 54 12.2 65 65 N 8 13 29.78 1008 10 16 0.00 0.00
7:53 am 07:53 Sunny 70 21.1 55 12.8 59 59 NNE 8 13 29.82 1010 10 16 0.00 0.00
8:53 am 08:53 Sunny 73 22.8 54 12.2 51 51 NNE 13 20 29.83 1010 10 16 0.00 0.00
9:53 am 09:53 Sunny 74 23.3 53 11.7 48 48 NE 12 19 29.84 1010 10 16 0.00 0.00
10:53 am 10:53 Sunny 77 25 52 11.1 42 42 NNE 14 22 29.84 1011 10 16 0.00 0.00
11:53 am 11:53 Sunny 76 24.4 52 11.1 43 43 NE 13 20 29.86 1011 10 16 0.00 0.00
12:53 pm 12:53 Sunny 77 25 49 9.4 37 37 NE 10 17 29.87 1012 10 16 0.00 0.00
1:53 pm 13:53 Sunny 80 26.7 48 8.9 33 33 undefined N/A 29.86 1011 10 16 0.00 0.00
2:53 pm 14:53 Sunny 80 26.7 48 8.9 33 33 Calm 29.86 1011 10 16 0.00 0.00
3:53 pm 15:53 Sunny 84 28.9 50 10 31 31 NE 8 13 29.84 1011 10 16 0.00 0.00
4:53 pm 16:53 Sunny 85 29.4 49 9.4 29 29 N 10 17 29.83 1010 10 16 0.00 0.00
5:53 pm 17:53 Sunny 84 28.9 47 8.3 27 27 NNE 7 11 29.83 1010 10 16 0.00 0.00
6:53 pm 18:53 Sunny 83 28.3 48 8.9 30 30 NNE 10 17 29.83 1010 10 16 0.00 0.00
7:53 pm 19:53 Sunny 79 26.1 50 10 36 36 NE 8 13 29.84 1010 10 16 0.00 0.00
8:53 pm 20:53 Sunny 73 22.8 52 11.1 48 48 NE 6 9 29.85 1011 10 16 0.00 0.00
9:53 pm 21:53 Clear 72 22.2 52 11.1 50 50 ENE 5 7 29.86 1011 10 16 0.00 0.00
10:53 pm 22:53 Clear 66 18.9 53 11.7 63 63 N 3 6 29.88 1012 10 16 0.00 0.00
11:53 pm 23:53 Clear 66 18.9 53 11.7 63 63 Calm 29.88 1012 10 16 0.00 0.00

Powered by AerisWeather